This is the latest recevied weather packets stored in our database for station/object KG0HG. If no packets are shown the sender has not sent any weather packets the latest 10 day(s).
| Time | Temp. | Humidity | Pressure | Rain* | Wind** | Luminosity | Snow |
|---|---|---|---|---|---|---|---|
| 1777737027 | 13.33° C | 40% | 1022 hPa | 0 mm | - | 40 W/m² | - |
| 1777736722 | 13.33° C | 40% | 1022.1 hPa | 0 mm | - | 46 W/m² | - |
| 1777736090 | 12.78° C | 42% | 1022.4 hPa | 0 mm | - | 45 W/m² | - |
| 1777735786 | 12.78° C | 44% | 1022.3 hPa | 0 mm | - | 33 W/m² | - |
| 1777735484 | 12.78° C | 46% | 1022.4 hPa | 0 mm | - | 47 W/m² | - |
| 1777735182 | 12.78° C | 46% | 1022.1 hPa | 0 mm | - | 39 W/m² | - |
| 1777734878 | 12.78° C | 48% | 1022.2 hPa | 0 mm | - | 38 W/m² | - |
| 1777734576 | 12.78° C | 50% | 1022.2 hPa | 0 mm | - | 37 W/m² | - |
| 1777734272 | 12.22° C | 50% | 1022.3 hPa | 0 mm | - | 41 W/m² | - |
| 1777733968 | 11.67° C | 51% | 1022 hPa | 0 mm | - | 168 W/m² | - |
| 1777733666 | 11.67° C | 52% | 1022.1 hPa | 0 mm | - | 35 W/m² | - |
| 1777733362 | 11.67° C | 52% | 1022.1 hPa | 0 mm | - | 35 W/m² | - |
| 1777733059 | 11.67° C | 52% | 1021.8 hPa | 0 mm | - | 34 W/m² | - |
| 1777732755 | 11.67° C | 54% | 1022 hPa | 0 mm | - | 35 W/m² | - |
| 1777732452 | 11.67° C | 54% | 1022 hPa | 0 mm | - | 33 W/m² | - |
| 1777732150 | 11.11° C | 56% | 1021.8 hPa | 0 mm | - | 56 W/m² | - |
| 1777731846 | 10.56° C | 56% | 1022.1 hPa | 0 mm | - | 87 W/m² | - |
| 1777731543 | 10.56° C | 58% | 1022.1 hPa | 0 mm | - | 50 W/m² | - |
| 1777731241 | 10.56° C | 59% | 1022.1 hPa | 0 mm | - | 57 W/m² | - |
| 1777730938 | 10° C | 59% | 1021.9 hPa | 0 mm | - | 33 W/m² | - |
| 1777730636 | 10° C | 62% | 1022 hPa | 0 mm | - | 46 W/m² | - |
| 1777730332 | 10° C | 62% | 1022.2 hPa | 0 mm | - | 31 W/m² | - |
| 1777730029 | 9.44° C | 62% | 1021.9 hPa | 0 mm | - | 30 W/m² | - |
| 1777729725 | 9.44° C | 64% | 1022 hPa | 0 mm | - | 31 W/m² | - |
| 1777729422 | 8.89° C | 64% | 1021.9 hPa | 0 mm | - | 35 W/m² | - |
* Rain latest hour (hover to see other rain measurements)
** Current wind speed in m/s (hover to see current wind gust speed)